weather.gov     
National Weather Service

Regional Weather Roundup
NWS Homepage
This page is being discontinued on March 12, 2014.
The same data is available at this site. Please update your bookmarks.
Thank you, and we apologize for the inconvenience.
Please send an email to SR-SRH.Webmaster@noaa.gov with any concerns.


Current Version
Previous Version:    01  02  03  04  05  06  07  08  09  10  11  12  13  14  15  16  17  18  19  20  21  22  23  24  25  26  27  28  29  30  
   31  32  33  34  35  36  37  38  39  40  41  42  43  44  45  46  47  48  49  50  51  52  53  54  55  56  57  58  59  60  
[Printable]
717
NZUS01 KOTX 260800
RWROTX
EASTERN WASHINGTON/NORTHERN IDAHO ROUNDUP
NATIONAL WEATHER SERVICE, SPOKANE WA
1200 AM PST WED NOV 26 2014

Note: "fair" indicated few or no clouds below 12,000 feet with no
significant weather and/or obstructions to visibility.

...NORTHEAST WASHINGTON AND NORTHERN IDAHO PANHANDLE...

CITY           SKY/WX    TMP DP  RH WIND       PRES   REMARKS
SPOKANE INTL   DRZL/FOG  33  33 100 N3        30.16R VSB 1/2
SPOKANE DOWNTO CLOUDY    35  33  92 CALM      30.18R FOG
COEUR D ALENE  CLOUDY    34  30  86 NE5       30.16R WCI  30
DEER PARK      LGT SNOW  33  32  96 NW3       30.18R FOG

...SOUTHEAST WASHINGTON AND SOUTHERN IDAHO PANHANDLE...

CITY           SKY/WX    TMP DP  RH WIND       PRES   REMARKS
WALLA WALLA    FOG       42  41  96 SW5       30.20S VSB<1/4
PULLMAN/MOSCOW LGT RAIN  41  39  93 W3        30.16S FOG
LOWELL           N/A     36  35  96 N3        30.21F

...COLUMBIA BASIN...

CITY           SKY/WX    TMP DP  RH WIND       PRES   REMARKS
EPHRATA        CLOUDY    37  36  96 N5        30.20S
MOSES LAKE     CLOUDY    37  36  96 N5        30.20F
TRI CITIES     CLOUDY    41  40  96 NW3       30.23S
HERMISTON      PTCLDY    38  36  92 SW5       30.19S
PENDLETON      PTCLDY    55  43  63 SW14      30.21R

...EAST SLOPES CASCADES...

CITY           SKY/WX    TMP DP  RH WIND       PRES   REMARKS
THE DALLES     CLOUDY    57  50  77 CALM      30.23R
YAKIMA         CLOUDY    37  34  89 CALM      30.18F
ELLENSBURG     CLOUDY    39  35  86 SE3       30.16F
WENATCHEE      CLOUDY    38  35  89 CALM      30.20R FOG
OMAK           MIX PCPN  32  31  96 CALM      30.21F FOG

...SOUTHERN BRITISH COLUMBIA...

CITY           SKY/WX    TMP DP  RH WIND       PRES   REMARKS

...WESTERN MONTANA...

CITY           SKY/WX    TMP DP  RH WIND       PRES   REMARKS
MISSOULA       LGT SNOW  31  31 100 CALM      30.15F VSB 1

...NEIGHBORING CITIES...

CITY           SKY/WX    TMP DP  RH WIND       PRES   REMARKS
SEATTLE        CLOUDY    55  53  93 S14       30.20R




U.S. Dept. of Commerce
NOAA National Weather Service
1325 East West Highway
Silver Spring, MD 20910
E-mail: w-nws.webmaster@noaa.gov
Page last modified: May 16, 2007
NATIONAL WEATHER SERVICE: for Safety, for Work, for Fun - FOR LIFE